Regional Weather Roundup
Issued by NWS

Home | Current Version | Previous Version | Text Only | Print | Product List | Glossary On
Versions: 1 2 3 4 5 6 7 8 9 10 11 12 13 14 15 16 17 18 19 20 21 22 23 24 25 26 27 28 29 30 31 32 33 34 35 36 37 38 39 40 41 42 43 44 45 46 47 48 49 50
000
ASUS43 KFSD 281610
RWRSD

WEATHER ROUNDUP FOR SOUTH DAKOTA
NATIONAL WEATHER SERVICE SIOUX FALLS SD
1000 AM CST TUE FEB 28 2017

NOTE: "FAIR" INDICATES FEW OR NO CLOUDS BELOW 12,000 FEET WITH NO
SIGNIFICANT WEATHER AND/OR OBSTRUCTIONS TO VISIBILITY.


SDZ001>005-009-010-012>017-281700-
NORTHWEST AND NORTH CENTRAL SOUTH DAKOTA

CITY           SKY/WX    TMP DP  RH WIND       PRES   REMARKS
BUFFALO          N/A     20  17  88 E10       29.66S WCI   9
FAITH            N/A     22  20  92 NE17      29.75S WCI   8
MOBRIDGE       CLOUDY    26  14  60 NE13      29.78F WCI  15
$$

SDZ012>016-024>037-041>051-057-063-072>074-281700-
SOUTHWEST AND SOUTH CENTRAL SOUTH DAKOTA

CITY           SKY/WX    TMP DP  RH WIND       PRES   REMARKS
RAPID CTY ARPT CLOUDY    24  22  91 N13       29.70R WCI  12
PIERRE         LGT SNOW  25  22  88 NE12      29.77S FOG     WCI  14
CUSTER         SUNNY     23  14  68 W8        29.58R WCI  14
ELLSWORTH AFB  CLOUDY    25  25 100 N8        29.69  FOG     WCI  16
PHILIP         FOG       29  29 100 E8        29.73S VSB 1/4 WCI  21
PINE RIDGE     CLOUDY    26  17  68 W14       29.69F WCI  14
SPEARFISH      FOG       19  18  93 NE5       29.70R VSB<1/4 WCI  13
WINNER         CLOUDY    32  30  92 NW5       29.74F FOG     WCI  27
$$

SDZ004>011-016>023-039-040-281700-
NORTHEAST SOUTH DAKOTA

CITY           SKY/WX    TMP DP  RH WIND       PRES   REMARKS
ABERDEEN       CLOUDY    19  15  84 N16       29.82S WCI   4
WATERTOWN      CLOUDY    26  22  84 NE13      29.73F WCI  15
BROOKINGS      CLOUDY    34  29  82 NE14      29.70F WCI  25
SISSETON         N/A     23  20  88 N15       29.81S WCI  10
$$

SDZ017-020-022-023-036>040-048>070-281700-
SOUTHEAST SOUTH DAKOTA

CITY           SKY/WX    TMP DP  RH WIND       PRES   REMARKS
SIOUX FALLS    PTSUNNY   35  32  88 NE16      29.69F WCI  25
HURON          CLOUDY    27  24  89 N14       29.76F WCI  16
CHAMBERLAIN    CLOUDY    30  29  94 N5        29.76S FOG     WCI  25
MITCHELL       CLOUDY    34  32  92 N12       29.75S WCI  25
YANKTON        MOSUNNY   36  30  80 N12       29.68F
$$

ABBREVIATIONS USED IN REMARKS
   TC - TEMPERATURE IN CELSIUS
  WCI - WIND CHILL INDEX
   HX - HEAT INDEX
  VSB - VISIBILITY




USA.gov is the U.S. government's official web portal to all federal, state and local government web resources and services.